Tracking 17150 objects as of 4-August-2015
HD Live streaming from Space Station

COSMOS 1626

Track COSMOS 1626 now!
10-day predictions
COSMOS 1626 is classified as:


NORAD ID: 15494
Int'l Code: 1985-009A
Perigee: 513.9 km
Apogee: 514.9 km
Inclination: 82.5 °
Period: 94.8 minutes
Semi major axis: 6885 km
RCS: 7.281 m2 (large)
Launch date: January 24, 1985
Source: Commonwealth of Independent States (former USSR) (CIS)
Your satellite tracking list
Your tracking list is empty





NASA's NSSDC Master Catalog

Two Line Element Set (TLE):
1 15494U 85009A   15215.84018200  .00002273  00000-0  10554-3 0  9994
2 15494 082.4790 212.0526 0000726 302.4375 126.1959 15.19544128664898

Source of the keplerian elements: AFSPC

N2YO: 325